Probability
0 0 0 0 0 0 0 0 0 0 0 0 0 0 0 0 0 0 0 0 0 0 0 0 0 0 0 0 0 0 0 0 0 0 0 0 0 0 0 0 0 3 3 0
0 0 0 0 0 0 0 0 0 0 0 0 0 0 0 0 0 0 0 0 0 0 0 0 0 0 0 0 0 0 0 0 0 0 0 0 0 0 0 0 0 0 3 0
0 0 0 0 0 0 0 0 0 0 0 0 0 0 0 0 0 0 0 0 0 0 0 0 0 0 0 0 0 0 0 0 0 0 0 0 0 0 0 0 0 0 0 0
0 0 0 0 0 0 0 0 0 0 0 0 0 0 0 0 0 0 0 0 0 0 0 0 0 0 0 0 0 0 0 0 0 0 0 0 0 0 0 0 0 0 0 0
0 0 0 0 0 0 0 0 0 0 0 0 0 0 0 0 0 0 0 0 0 0 0 0 0 0 0 0 0 0 0 0 0 0 0 0 0 0 0 0 0 0 0 0
0 0 0 0 0 0 0 0 0 0 0 0 0 0 0 0 0 0 0 0 0 0 0 0 0 0 0 0 0 0 0 0 0 0 0 0 0 0 0 0 0 0 0 0
0 0 0 0 0 0 0 0 0 0 0 0 0 0 0 0 0 0 0 0 0 0 0 0 0 0 0 0 0 0 0 0 0 0 0 0 0 0 0 0 0 0 0 0
0 0 0 0 0 0 0 0 0 0 0 0 0 0 0 0 0 0 0 0 0 0 0 0 0 0 0 0 0 0 0 0 0 0 0 0 0 0 0 0 0 0 0 0
0 0 0 0 0 0 0 0 0 0 0 0 0 0 0 0 0 0 0 0 0 0 0 0 0 0 0 0 0 0 0 0 0 0 0 0 0 0 0 0 0 0 0 0
0 0 0 0 0 0 0 0 0 0 0 0 0 0 0 0 0 0 0 0 0 0 0 0 0 0 0 0 0 0 0 0 0 0 0 0 0 0 0 0 0 0 0 0
0 0 0 0 0 0 0 0 0 0 0 0 0 0 0 0 0 0 0 0 0 0 0 0 0 0 0 0 0 0 0 0 0 0 0 0 0 0 0 0 0 0 0 0
0 0 0 0 0 0 0 0 0 0 0 0 0 0 0 0 0 0 0 0 0 0 0 0 0 0 0 0 0 0 0 0 0 0 0 0 0 0 0 0 0 0 0 0
0 0 0 0 0 0 0 0 0 0 0 0 0 0 0 0 0 0 0 0 0 0 0 0 0 0 0 0 0 0 0 0 0 0 0 0 0 0 0 0 0 0 0 0
0 0 0 0 0 0 0 0 0 0 0 0 0 0 0 0 0 0 0 0 0 0 0 0 0 0 0 0 0 0 0 0 0 0 0 0 0 0 0 0 0 0 0 0
0 0 0 0 0 0 0 0 0 0 0 0 0 0 0 0 0 0 0 0 0 0 0 0 0 0 0 0 0 0 0 0 0 0 0 0 0 0 0 0 0 0 0 0
0 0 0 0 0 0 0 0 0 0 0 0 0 0 0 0 0 0 0 0 0 0 0 0 0 0 0 0 0 0 0 0 0 0 0 0 0 0 0 0 0 0 0 0
0 0 0 0 0 0 0 0 0 0 0 0 0 0 0 0 0 0 0 0 0 0 0 0 0 0 0 0 0 0 0 0 0 0 0 0 0 0 0 0 0 0 0 0
0 0 0 0 0 0 0 0 0 0 0 0 0 0 0 0 0 0 0 0 0 0 0 0 0 0 0 0 0 0 0 0 0 0 0 0 0 0 0 0 0 0 0 0
0 0 0 0 0 0 0 0 0 0 0 0 0 0 0 0 0 0 0 0 0 0 0 0 0 0 0 0 0 0 0 0 0 0 0 0 0 0 0 0 0 0 0 0
0 0 0 0 0 0 0 0 0 0 0 0 0 0 0 0 0 0 0 0 0 0 0 0 0 0 0 0 0 0 0 0 0 0 0 0 0 0 0 0 0 0 0 0
0 0 0 0 0 0 0 0 0 0 0 0 0 0 0 0 0 0 0 0 0 0 0 0 0 0 0 0 0 0 0 0 0 0 0 0 0 0 0 0 0 0 0 0
0 0 0 0 0 0 0 0 0 0 0 0 0 0 0 0 0 0 0 0 0 0 0 0 0 0 0 0 0 0 0 0 0 0 0 0 0 0 0 0 0 0 0 0
0 0 0 0 0 0 0 0 0 0 0 0 0 0 0 0 0 0 0 0 0 0 0 0 0 0 0 0 0 0 0 0 0 0 0 0 0 0 0 0 0 0 0 0
0 0 0 0 0 0 0 0 0 0 0 0 0 0 0 0 0 0 0 0 0 0 0 0 0 0 0 0 0 0 0 0 0 0 0 0 0 0 0 0 0 0 0 0
0 0 0 0 0 0 0 0 0 0 0 0 0 0 0 0 0 0 0 0 0 0 0 0 0 0 0 0 0 0 0 0 0 0 0 0 0 0 0 0 0 0 0 0
0 0 0 0 0 0 0 0 0 0 0 0 0 0 0 0 0 0 0 0 0 0 0 0 0 0 0 0 0 0 0 0 0 0 0 0 0 0 0 0 0 0 0 0
Height
5712 5713 5714 5714 5714 5714 5714 5714 5714 5715 5715 5715 5717 5718 5720 5721 5722 5724 5725 5727 5729 5731 5732 5734 5735 5737 5739 5741 5743 5745 5747 5750 5752 5754 5755 5757 5758 5760 5762 5763 5764 5764 5764 5764
5705 5706 5706 5705 5706 5706 5706 5706 5707 5708 5708 5708 5709 5711 5713 5714 5715 5717 5718 5719 5720 5722 5723 5725 5726 5728 5730 5731 5733 5736 5738 5740 5742 5744 5746 5747 5749 5751 5752 5753 5754 5755 5756 5756
5697 5699 5698 5698 5698 5698 5699 5699 5700 5700 5700 5700 5702 5703 5706 5707 5707 5709 5710 5711 5712 5713 5715 5716 5717 5719 5720 5722 5724 5726 5728 5730 5732 5734 5736 5738 5739 5741 5742 5744 5745 5746 5747 5747
5689 5690 5690 5691 5691 5691 5692 5692 5692 5693 5693 5693 5695 5695 5698 5699 5700 5701 5702 5703 5704 5705 5706 5707 5708 5709 5711 5713 5715 5717 5719 5721 5723 5724 5726 5728 5730 5732 5734 5734 5735 5737 5737 5738
5681 5682 5683 5683 5684 5684 5684 5685 5685 5685 5685 5686 5687 5687 5690 5692 5692 5694 5695 5695 5696 5697 5698 5698 5699 5700 5702 5704 5706 5708 5709 5711 5713 5715 5716 5718 5720 5722 5723 5724 5726 5727 5727 5728
5675 5675 5675 5676 5676 5677 5677 5678 5677 5677 5677 5678 5681 5680 5682 5684 5685 5686 5687 5688 5688 5689 5689 5690 5691 5692 5693 5695 5696 5698 5700 5702 5704 5705 5707 5708 5710 5711 5713 5714 5716 5717 5717 5718
5668 5668 5668 5668 5669 5669 5670 5671 5670 5670 5669 5671 5673 5672 5675 5677 5677 5678 5679 5680 5680 5681 5682 5682 5683 5684 5685 5686 5688 5689 5691 5692 5694 5696 5697 5698 5700 5701 5703 5704 5705 5706 5707 5708
5660 5661 5661 5661 5662 5662 5663 5663 5664 5663 5663 5663 5664 5664 5668 5669 5669 5669 5670 5671 5672 5673 5674 5674 5675 5675 5676 5677 5678 5680 5681 5683 5684 5686 5687 5689 5690 5691 5692 5693 5694 5695 5696 5697
5653 5653 5654 5653 5654 5654 5654 5655 5656 5655 5654 5655 5655 5657 5660 5661 5661 5661 5662 5663 5664 5665 5665 5666 5666 5667 5667 5667 5668 5670 5671 5672 5674 5675 5676 5678 5679 5680 5681 5682 5683 5684 5685 5686
5646 5646 5646 5646 5646 5646 5647 5647 5648 5647 5646 5646 5647 5649 5651 5652 5653 5654 5654 5655 5656 5656 5656 5657 5657 5657 5657 5658 5658 5659 5660 5661 5663 5664 5666 5667 5669 5670 5671 5671 5672 5673 5674 5675
5639 5639 5639 5639 5638 5639 5639 5640 5639 5639 5639 5639 5639 5643 5643 5644 5645 5645 5646 5647 5647 5647 5647 5647 5647 5647 5648 5648 5648 5649 5650 5651 5652 5653 5655 5656 5658 5659 5660 5661 5661 5662 5662 5663
5633 5632 5631 5632 5631 5631 5631 5632 5632 5632 5632 5631 5631 5636 5635 5636 5636 5636 5637 5638 5639 5638 5638 5638 5638 5638 5638 5638 5639 5639 5640 5641 5642 5643 5644 5645 5646 5647 5648 5649 5650 5650 5651 5651
5627 5626 5625 5624 5626 5625 5624 5624 5624 5624 5623 5623 5623 5628 5627 5627 5628 5628 5629 5629 5630 5630 5630 5629 5629 5629 5629 5629 5630 5630 5630 5631 5631 5632 5633 5634 5635 5636 5637 5638 5638 5639 5639 5639
5621 5620 5619 5619 5617 5617 5617 5617 5617 5616 5615 5615 5617 5619 5620 5619 5619 5619 5620 5620 5621 5621 5621 5621 5620 5620 5620 5621 5621 5620 5620 5621 5621 5622 5623 5623 5624 5625 5626 5626 5627 5627 5627 5627
5614 5614 5612 5611 5611 5610 5610 5610 5610 5609 5609 5609 5610 5611 5612 5611 5610 5611 5611 5612 5612 5612 5612 5612 5611 5612 5611 5611 5611 5611 5611 5611 5611 5611 5612 5612 5613 5614 5614 5614 5615 5615 5615 5615
5608 5607 5606 5606 5604 5603 5603 5603 5602 5602 5601 5601 5602 5604 5604 5602 5602 5603 5603 5603 5603 5603 5603 5603 5602 5602 5602 5602 5602 5602 5602 5601 5601 5601 5601 5601 5601 5602 5602 5602 5602 5603 5603 5603
5603 5602 5600 5600 5598 5597 5597 5598 5596 5595 5594 5594 5594 5596 5595 5595 5595 5594 5594 5594 5594 5594 5594 5594 5594 5594 5593 5593 5592 5592 5592 5591 5591 5591 5591 5590 5590 5590 5590 5590 5590 5590 5590 5590
5598 5596 5594 5593 5593 5591 5595 5591 5589 5588 5588 5587 5587 5587 5586 5587 5587 5586 5586 5585 5585 5586 5586 5585 5585 5585 5585 5584 5583 5583 5582 5581 5581 5581 5580 5580 5579 5579 5579 5578 5578 5577 5577 5577
5592 5590 5589 5587 5585 5585 5586 5585 5583 5582 5581 5580 5579 5579 5579 5578 5578 5578 5577 5577 5577 5576 5576 5576 5576 5576 5576 5575 5574 5573 5572 5572 5571 5571 5570 5569 5568 5568 5567 5567 5566 5565 5564 5564
5586 5584 5584 5581 5579 5579 5581 5578 5576 5575 5575 5574 5572 5572 5571 5570 5570 5571 5569 5569 5568 5568 5568 5567 5566 5566 5566 5565 5564 5563 5562 5562 5561 5560 5559 5558 5557 5556 5555 5555 5554 5553 5552 5551
5580 5578 5577 5575 5573 5573 5573 5571 5569 5570 5569 5567 5565 5564 5563 5562 5562 5562 5561 5560 5560 5559 5558 5558 5557 5557 5556 5555 5554 5553 5552 5551 5550 5549 5548 5547 5546 5545 5544 5543 5542 5541 5540 5539
5574 5572 5571 5569 5567 5569 5566 5564 5563 5562 5560 5558 5557 5556 5555 5554 5553 5552 5552 5551 5550 5550 5549 5549 5548 5547 5546 5545 5544 5542 5541 5540 5540 5539 5538 5537 5535 5534 5533 5532 5530 5529 5528 5527
5568 5567 5564 5564 5564 5561 5558 5557 5555 5554 5552 5551 5549 5548 5547 5546 5545 5544 5543 5542 5542 5541 5540 5540 5539 5538 5537 5535 5534 5533 5531 5530 5529 5529 5528 5527 5525 5524 5522 5521 5519 5517 5516 5515
5562 5560 5558 5557 5556 5554 5551 5549 5547 5546 5544 5543 5541 5540 5539 5537 5536 5535 5534 5533 5533 5532 5531 5530 5529 5528 5527 5525 5524 5523 5522 5521 5520 5519 5518 5517 5516 5514 5512 5510 5508 5506 5505 5503
5556 5554 5551 5550 5549 5546 5544 5542 5540 5538 5536 5535 5533 5532 5530 5529 5528 5526 5525 5524 5523 5523 5522 5521 5520 5519 5517 5516 5514 5513 5512 5511 5510 5510 5508 5507 5505 5504 5502 5500 5498 5496 5494 5492
5550 5548 5545 5544 5541 5539 5538 5535 5532 5531 5529 5527 5525 5524 5522 5520 5519 5518 5516 5515 5514 5513 5513 5512 5511 5509 5508 5506 5505 5504 5503 5502 5501 5500 5499 5497 5495 5494 5492 5489 5487 5485 5484 5482
Wind_Speed
27 27 27 27 27 27 27 28 29 29 29 30 30 30 30 30 31 31 32 32 34 35 36 38 39 38 39 40 40 41 42 42 43 43 43 42 41 41 40 39 38 38 37 36
28 27 27 28 28 28 28 28 28 29 29 29 30 30 29 30 30 30 31 32 33 34 35 36 38 38 39 39 39 41 41 41 42 43 43 43 43 42 42 41 40 40 38 37
27 27 27 27 27 28 28 28 28 28 29 30 30 30 29 29 30 30 30 31 32 33 34 34 36 38 39 38 38 39 41 41 41 42 43 43 43 42 42 43 41 41 40 39
25 25 26 26 26 27 28 28 28 29 29 29 30 31 29 28 29 30 30 30 31 31 32 33 34 35 37 38 38 38 39 40 41 42 42 43 42 42 42 43 43 42 42 41
25 25 25 25 26 27 27 27 28 29 29 29 29 31 29 28 28 29 29 29 30 30 30 32 33 34 36 37 37 38 39 39 39 40 42 43 43 43 43 43 42 42 42 42
24 25 25 25 26 26 27 27 28 29 30 30 28 30 30 28 28 28 29 29 30 30 30 31 33 34 35 36 36 37 38 39 39 40 41 42 43 43 43 43 43 43 43 43
24 25 25 25 25 25 26 26 27 29 30 31 29 30 30 28 28 29 29 29 29 30 31 31 31 33 35 36 37 37 38 39 40 40 41 42 42 42 42 43 44 44 44 44
23 24 25 25 25 26 26 26 27 29 30 31 31 31 30 29 28 29 29 29 29 29 30 30 31 31 33 36 37 38 39 40 41 41 42 42 42 42 42 43 43 44 44 44
22 23 24 25 25 26 27 27 28 29 31 32 32 32 30 29 29 28 29 29 30 30 31 31 31 31 31 33 36 37 39 40 41 42 43 43 43 43 43 43 43 44 44 43
21 22 22 24 25 25 26 27 28 29 30 31 32 31 30 29 29 29 29 29 29 30 30 31 32 32 33 34 35 37 38 39 40 41 42 43 43 44 43 43 43 43 44 44
20 22 22 23 23 23 24 25 27 28 30 30 31 30 28 28 29 29 29 29 28 30 31 32 33 33 33 34 34 35 36 38 39 41 42 43 43 43 43 44 43 44 44 45
20 21 22 22 22 21 22 23 25 27 28 29 30 29 29 30 29 30 29 29 29 30 30 31 32 33 33 34 34 34 35 37 38 40 41 42 42 42 42 43 43 43 44 45
19 20 21 20 21 21 22 22 23 25 27 28 29 29 28 29 30 30 30 29 30 30 30 30 31 32 33 33 34 35 36 36 37 38 40 41 42 43 43 43 43 44 44 44
20 20 21 21 20 21 22 22 23 24 25 26 27 27 27 28 29 30 30 29 30 30 31 31 32 32 32 33 33 34 35 37 38 38 39 41 42 42 43 44 44 45 45 45
20 21 21 21 20 21 21 22 23 25 25 26 26 26 26 28 29 30 30 30 30 29 30 31 31 32 32 33 33 33 34 35 37 39 39 41 42 43 43 43 44 45 45 45
19 20 20 20 20 20 20 20 22 24 26 27 26 26 26 28 29 30 30 30 30 30 30 30 31 31 32 32 33 33 33 34 35 37 39 40 41 41 42 43 44 45 45 45
18 19 20 20 20 19 19 20 21 22 23 25 25 25 25 27 28 28 29 30 30 30 31 31 30 30 31 31 33 33 34 34 35 36 36 37 38 39 40 42 43 44 45 45
18 19 19 19 19 20 19 20 21 22 23 24 25 24 24 24 26 27 28 28 29 30 31 31 31 31 31 31 32 33 34 34 34 34 35 36 37 37 38 39 41 42 43 45
17 18 20 20 20 20 20 21 21 22 22 23 24 24 25 24 25 26 27 28 29 29 29 30 30 30 31 31 32 33 33 34 34 34 35 36 37 37 38 39 40 41 41 42
17 18 20 20 21 20 20 21 22 23 23 23 23 25 25 25 25 25 26 27 28 28 29 29 29 30 31 32 32 32 33 34 34 34 35 35 36 36 37 38 39 40 40 40
18 19 20 21 22 21 20 21 22 23 23 23 24 25 25 25 26 26 27 27 27 27 27 27 27 29 30 31 32 33 34 33 33 33 34 34 34 35 36 37 38 39 39 39
20 20 21 21 22 21 21 22 23 23 23 24 24 25 26 27 27 28 28 28 27 26 26 27 27 28 28 29 30 31 32 32 33 33 33 33 33 34 35 36 38 38 38 38
19 20 20 20 21 22 23 23 24 24 24 24 24 25 26 26 26 27 28 28 27 26 27 27 27 28 28 29 29 29 30 30 31 31 32 32 32 33 34 35 36 37 37 37
19 20 21 21 21 23 24 24 25 25 25 25 25 25 26 26 26 26 26 27 27 27 27 27 27 28 28 28 29 29 29 30 30 31 31 32 32 32 33 34 35 35 36 37
20 21 21 22 22 23 23 24 25 25 25 25 25 25 24 24 25 25 25 26 27 27 28 28 28 28 29 29 29 29 30 31 31 31 31 32 32 33 33 33 34 34 35 35
20 21 22 22 23 24 23 24 24 24 24 24 24 23 24 23 24 24 25 25 26 26 27 28 28 28 28 29 29 29 29 30 30 30 31 31 31 32 33 33 33 33 33 33
Wind_Direction
261 258 257 258 260 260 260 259 259 259 259 258 257 256 254 254 253 251 251 251 249 248 249 249 249 249 249 250 250 249 249 249 250 251 252 252 251 251 251 253 256 257 258 260
261 259 258 258 259 259 259 259 260 259 258 259 259 257 254 254 254 253 252 251 250 249 249 250 249 248 249 250 251 250 250 251 251 252 252 253 253 253 253 253 256 257 258 259
262 261 259 258 257 257 257 258 258 258 258 259 259 257 256 255 255 254 253 253 252 251 250 250 250 249 249 250 250 250 249 250 252 252 252 253 254 255 255 255 256 257 257 257
263 260 260 259 259 258 258 257 256 256 258 258 257 259 257 256 256 254 253 253 252 251 250 250 250 250 249 249 250 250 249 250 251 252 252 253 254 255 256 257 256 256 256 256
264 261 260 259 259 259 258 258 257 256 257 258 257 258 259 257 257 256 254 252 251 251 250 250 251 251 250 249 250 250 250 251 252 252 253 253 254 255 256 257 257 257 257 257
266 262 261 260 260 260 259 258 256 255 256 258 258 259 260 259 260 259 257 254 253 252 252 252 253 252 251 251 251 250 251 252 253 253 254 255 256 255 256 257 257 259 259 258
270 264 262 261 261 260 259 259 258 257 256 258 259 260 262 263 262 261 258 256 254 252 252 253 254 254 253 252 252 252 252 253 253 254 255 256 256 256 256 256 257 258 259 259
274 267 263 261 260 261 261 260 259 260 260 259 260 261 263 264 264 261 258 256 254 253 252 254 256 256 255 253 253 253 254 254 255 255 255 255 256 257 256 256 257 259 260 261
278 270 266 263 261 261 260 259 259 260 261 262 261 261 262 262 262 261 259 257 255 254 255 256 256 257 257 256 254 254 254 255 255 255 255 256 256 257 257 257 258 259 259 260
279 273 269 266 264 261 260 259 259 259 262 263 263 262 261 259 260 260 259 257 257 256 255 256 257 259 259 259 259 257 257 256 255 253 254 256 257 257 257 259 258 258 259 259
280 276 271 268 265 262 260 258 258 259 260 263 265 264 261 260 260 260 260 259 261 258 258 258 257 257 258 259 260 260 259 257 255 254 255 255 256 257 257 257 258 258 259 260
284 279 275 270 266 263 262 261 261 261 262 262 266 265 261 261 261 261 261 262 262 262 262 260 258 257 258 259 260 261 261 260 258 256 255 255 256 257 257 257 258 260 261 261
287 283 279 273 266 264 263 262 261 261 262 263 263 264 261 262 262 262 263 264 264 262 263 262 261 260 261 261 262 263 263 263 261 260 258 258 258 257 258 259 259 260 262 262
286 283 279 276 272 269 264 263 261 262 264 264 263 263 262 264 264 263 264 266 267 266 263 262 262 263 264 263 264 265 265 263 262 261 261 260 260 260 260 260 260 261 261 262
286 284 280 276 275 272 268 265 263 264 265 266 265 264 264 264 264 264 265 266 266 266 265 264 263 264 265 266 266 266 266 265 263 262 262 263 261 261 261 260 260 261 262 263
286 285 281 277 275 273 271 270 268 267 266 267 267 266 266 265 265 266 266 265 266 266 265 266 267 267 267 267 266 267 267 266 266 265 265 264 263 263 262 262 262 262 262 264
283 285 284 282 278 277 275 276 275 272 269 268 268 267 267 265 266 267 267 266 267 266 267 267 267 269 269 269 268 268 268 268 267 267 266 266 265 264 264 264 264 264 264 265
283 283 285 286 282 278 279 277 277 276 272 271 270 268 270 267 264 265 267 268 268 268 268 269 269 269 269 270 270 270 270 270 270 268 267 267 266 266 267 267 267 267 267 267
282 283 284 286 285 283 280 280 280 278 275 276 273 271 271 271 269 268 268 269 269 269 267 268 269 270 270 271 271 271 270 270 270 270 269 268 267 267 267 267 268 268 268 269
284 284 285 286 286 287 287 284 281 280 277 276 276 275 274 274 272 269 269 268 269 270 269 269 269 271 272 272 271 270 270 270 270 270 269 269 269 268 268 268 268 269 269 270
287 287 286 286 286 288 290 288 286 283 284 282 280 278 276 275 274 272 271 272 272 271 270 269 270 271 272 273 273 272 272 271 271 271 271 271 270 269 269 269 269 270 270 271
288 289 288 287 288 291 290 288 288 288 287 283 282 280 279 278 278 277 275 274 273 272 271 272 273 272 273 274 274 274 273 272 271 271 272 273 272 271 271 272 272 272 271 271
289 290 289 289 292 292 290 289 290 290 289 286 285 282 281 281 281 280 277 275 273 273 273 274 275 276 275 274 274 275 274 273 271 271 272 273 274 275 275 275 274 274 274 273
292 291 291 290 292 292 291 291 291 290 289 288 286 284 282 282 282 281 278 275 273 272 273 275 277 278 278 277 277 274 275 274 272 272 273 274 275 277 277 277 277 277 277 276
293 295 293 292 292 292 293 293 292 292 291 289 287 285 284 283 283 282 279 276 274 273 273 275 277 279 280 279 279 277 277 276 274 274 274 275 277 278 278 279 279 279 277 277
293 293 294 295 294 295 295 293 293 294 293 291 288 287 285 284 284 284 281 277 276 275 275 275 277 279 281 281 280 279 279 278 276 276 277 277 278 279 279 279 280 279 278 277